Time,TemperatureF,DewpointF,PressureIn,WindDirection,WindDirectionDegrees,WindSpeedMPH,WindSpeedGustMPH,Humidity,HourlyPrecipIn,Conditions,Clouds,dailyrainin,SoftwareType,DateUTC
2013-01-28 00:03:00,37.8,33.7,29.83,NW,323,0.0,0.0,85,0.00,,---,0.00,VWS V14.00,2013-01-28 08:03:00,
2013-01-28 00:08:00,37.6,33.5,29.83,NW,323,0.0,0.0,85,0.00,,---,0.00,VWS V14.00,2013-01-28 08:08:00,
2013-01-28 00:13:00,37.5,33.4,29.83,NW,323,0.0,0.0,85,0.00,,---,0.00,VWS V14.00,2013-01-28 08:13:00,
2013-01-28 00:18:00,37.3,33.2,29.83,NW,323,0.0,0.0,85,0.00,,---,0.00,VWS V14.00,2013-01-28 08:18:00,
2013-01-28 00:23:00,37.0,32.9,29.83,NW,323,0.0,0.0,85,0.00,,---,0.00,VWS V14.00,2013-01-28 08:23:00,
2013-01-28 00:28:00,36.9,33.1,29.83,NW,323,0.0,0.0,86,0.00,,---,0.00,VWS V14.00,2013-01-28 08:28:00,
2013-01-28 00:33:00,36.8,33.0,29.83,NW,323,0.0,0.0,86,0.00,,---,0.00,VWS V14.00,2013-01-28 08:33:00,
2013-01-28 00:38:00,36.6,32.8,29.83,NW,323,0.0,0.0,86,0.00,,---,0.00,VWS V14.00,2013-01-28 08:38:00,
2013-01-28 00:43:00,36.5,32.7,29.83,NW,323,0.0,0.0,86,0.00,,---,0.00,VWS V14.00,2013-01-28 08:43:00,
2013-01-28 00:48:00,36.3,32.5,29.83,NW,323,0.0,0.0,86,0.00,,---,0.00,VWS V14.00,2013-01-28 08:48:00,
2013-01-28 00:53:00,36.2,32.7,29.83,NW,323,0.0,0.0,87,0.00,,---,0.00,VWS V14.00,2013-01-28 08:53:00,
2013-01-28 00:58:00,36.3,32.8,29.83,NW,323,0.0,0.0,87,0.00,,---,0.00,VWS V14.00,2013-01-28 08:58:00,
2013-01-28 01:03:00,36.3,32.8,29.83,NW,323,0.0,0.0,87,0.00,,---,0.00,VWS V14.00,2013-01-28 09:03:00,
2013-01-28 01:08:00,36.2,32.7,29.83,NW,323,0.0,0.0,87,0.00,,---,0.00,VWS V14.00,2013-01-28 09:08:00,
2013-01-28 01:13:00,36.2,32.7,29.83,NW,323,0.0,0.0,87,0.00,,---,0.00,VWS V14.00,2013-01-28 09:13:00,
2013-01-28 01:18:00,36.0,32.5,29.83,NW,323,0.0,0.0,87,0.00,,---,0.00,VWS V14.00,2013-01-28 09:18:00,
2013-01-28 01:23:00,35.9,32.4,29.83,NW,323,0.0,0.0,87,0.00,,---,0.00,VWS V14.00,2013-01-28 09:23:00,
2013-01-28 01:28:00,35.8,32.6,29.83,NW,323,0.0,0.0,88,0.00,,---,0.00,VWS V14.00,2013-01-28 09:28:00,
2013-01-28 01:33:00,35.6,32.4,29.83,NW,323,0.0,0.0,88,0.00,,---,0.00,VWS V14.00,2013-01-28 09:33:00,
2013-01-28 01:38:00,35.5,32.3,29.83,NW,323,0.0,0.0,88,0.00,,---,0.00,VWS V14.00,2013-01-28 09:38:00,
2013-01-28 01:43:00,35.5,32.3,29.83,NW,323,0.0,0.0,88,0.00,,---,0.00,VWS V14.00,2013-01-28 09:43:00,
2013-01-28 01:48:00,35.3,32.1,29.83,NW,323,0.0,0.0,88,0.00,,---,0.00,VWS V14.00,2013-01-28 09:48:00,
2013-01-28 01:53:00,35.0,31.8,29.83,NW,323,0.0,0.0,88,0.00,,---,0.00,VWS V14.00,2013-01-28 09:53:00,
2013-01-28 01:58:00,34.9,31.7,29.83,NW,323,0.0,0.0,88,0.00,,---,0.00,VWS V14.00,2013-01-28 09:58:00,
2013-01-28 02:03:00,34.6,31.4,29.83,NW,323,0.0,0.0,88,0.00,,---,0.00,VWS V14.00,2013-01-28 10:03:00,
2013-01-28 02:08:00,34.6,31.7,29.83,NW,323,0.0,0.0,89,0.00,,---,0.00,VWS V14.00,2013-01-28 10:08:00,
2013-01-28 02:13:00,34.4,31.5,29.83,NW,323,0.0,0.0,89,0.00,,---,0.00,VWS V14.00,2013-01-28 10:13:00,
2013-01-28 02:18:00,34.3,31.4,29.83,NW,323,0.0,0.0,89,0.00,,---,0.00,VWS V14.00,2013-01-28 10:18:00,
2013-01-28 02:23:00,34.1,31.2,29.83,NW,323,0.0,0.0,89,0.00,,---,0.00,VWS V14.00,2013-01-28 10:23:00,
2013-01-28 02:28:00,34.0,31.1,29.83,NW,323,0.0,0.0,89,0.00,,---,0.00,VWS V14.00,2013-01-28 10:28:00,
2013-01-28 02:33:00,34.0,31.1,29.82,NW,323,0.0,0.0,89,0.00,,---,0.00,VWS V14.00,2013-01-28 10:33:00,
2013-01-28 02:38:00,34.0,31.1,29.82,NW,323,0.0,0.0,89,0.00,,---,0.00,VWS V14.00,2013-01-28 10:38:00,
2013-01-28 02:43:00,33.8,30.9,29.82,NW,323,0.0,0.0,89,0.00,,---,0.00,VWS V14.00,2013-01-28 10:43:00,
2013-01-28 02:48:00,33.7,30.8,29.82,NW,323,0.0,0.0,89,0.00,,---,0.00,VWS V14.00,2013-01-28 10:48:00,
2013-01-28 02:53:00,33.7,30.8,29.82,NW,323,0.0,0.0,89,0.00,,---,0.00,VWS V14.00,2013-01-28 10:53:00,
2013-01-28 02:58:00,33.5,30.6,29.82,NW,323,0.0,0.0,89,0.00,,---,0.00,VWS V14.00,2013-01-28 10:58:00,
2013-01-28 03:03:00,33.4,30.5,29.83,NW,323,0.0,0.0,89,0.00,,---,0.00,VWS V14.00,2013-01-28 11:03:00,
2013-01-28 03:08:00,33.4,30.8,29.83,NW,323,0.0,0.0,90,0.00,,---,0.00,VWS V14.00,2013-01-28 11:08:00,
2013-01-28 03:13:00,33.2,30.6,29.83,NW,323,0.0,0.0,90,0.00,,---,0.00,VWS V14.00,2013-01-28 11:13:00,
2013-01-28 03:18:00,33.1,30.5,29.83,NW,323,0.0,0.0,90,0.00,,---,0.00,VWS V14.00,2013-01-28 11:18:00,
2013-01-28 03:23:00,33.1,30.5,29.83,NW,323,0.0,0.0,90,0.00,,---,0.00,VWS V14.00,2013-01-28 11:23:00,
2013-01-28 03:28:00,32.9,30.3,29.83,NW,323,0.0,0.0,90,0.00,,---,0.00,VWS V14.00,2013-01-28 11:28:00,
2013-01-28 03:33:00,32.8,30.2,29.83,NW,323,0.0,0.0,90,0.00,,---,0.00,VWS V14.00,2013-01-28 11:33:00,
2013-01-28 03:38:00,32.7,30.1,29.83,NW,323,0.0,0.0,90,0.00,,---,0.00,VWS V14.00,2013-01-28 11:38:00,
2013-01-28 03:43:00,32.7,30.1,29.83,NW,323,0.0,0.0,90,0.00,,---,0.00,VWS V14.00,2013-01-28 11:43:00,
2013-01-28 03:48:00,32.5,29.9,29.83,NW,323,0.0,0.0,90,0.00,,---,0.00,VWS V14.00,2013-01-28 11:48:00,
2013-01-28 03:53:00,32.5,29.9,29.83,NW,323,0.0,0.0,90,0.00,,---,0.00,VWS V14.00,2013-01-28 11:53:00,
2013-01-28 03:58:00,32.5,29.9,29.83,NW,323,0.0,0.0,90,0.00,,---,0.00,VWS V14.00,2013-01-28 11:58:00,
2013-01-28 04:03:00,32.4,29.8,29.83,NW,323,0.0,0.0,90,0.00,,---,0.00,VWS V14.00,2013-01-28 12:03:00,
2013-01-28 04:08:00,32.4,29.8,29.83,NW,323,0.0,0.0,90,0.00,,---,0.00,VWS V14.00,2013-01-28 12:08:00,
2013-01-28 04:13:00,32.2,29.6,29.83,NW,323,0.0,0.0,90,0.00,,---,0.00,VWS V14.00,2013-01-28 12:13:00,
2013-01-28 04:18:00,32.2,29.6,29.84,NW,323,0.0,0.0,90,0.00,,---,0.00,VWS V14.00,2013-01-28 12:18:00,
2013-01-28 04:23:00,32.1,29.5,29.84,NW,323,0.0,0.0,90,0.00,,---,0.00,VWS V14.00,2013-01-28 12:23:00,
2013-01-28 04:28:00,32.2,29.9,29.84,NW,323,0.0,0.0,91,0.00,,---,0.00,VWS V14.00,2013-01-28 12:28:00,
2013-01-28 04:33:00,32.2,29.9,29.83,NW,323,0.0,0.0,91,0.00,,---,0.00,VWS V14.00,2013-01-28 12:33:00,
2013-01-28 04:38:00,32.4,30.1,29.83,NW,323,0.0,0.0,91,0.00,,---,0.00,VWS V14.00,2013-01-28 12:38:00,
2013-01-28 04:43:00,32.2,29.9,29.83,NW,323,0.0,0.0,91,0.00,,---,0.00,VWS V14.00,2013-01-28 12:43:00,
2013-01-28 04:48:00,32.1,29.8,29.84,NW,323,0.0,0.0,91,0.00,,---,0.00,VWS V14.00,2013-01-28 12:48:00,
2013-01-28 04:53:00,32.1,29.8,29.84,NW,323,0.0,0.0,91,0.00,,---,0.00,VWS V14.00,2013-01-28 12:53:00,
2013-01-28 04:58:00,32.2,29.9,29.84,NW,323,0.0,0.0,91,0.00,,---,0.00,VWS V14.00,2013-01-28 12:58:00,
2013-01-28 05:03:00,32.4,30.1,29.83,NW,323,0.0,0.0,91,0.00,,---,0.00,VWS V14.00,2013-01-28 13:03:00,
2013-01-28 05:08:00,32.4,30.1,29.83,NW,323,0.0,0.0,91,0.00,,---,0.00,VWS V14.00,2013-01-28 13:08:00,
2013-01-28 05:13:00,32.2,29.9,29.83,NW,323,0.0,0.0,91,0.00,,---,0.00,VWS V14.00,2013-01-28 13:13:00,
2013-01-28 05:18:00,32.1,29.5,29.83,NW,323,0.0,0.0,90,0.00,,---,0.00,VWS V14.00,2013-01-28 13:18:00,
2013-01-28 05:23:00,31.9,29.3,29.83,NW,323,0.0,0.0,90,0.00,,---,0.00,VWS V14.00,2013-01-28 13:23:00,
2013-01-28 05:28:00,31.8,29.2,29.83,NW,323,0.0,0.0,90,0.00,,---,0.00,VWS V14.00,2013-01-28 13:28:00,
2013-01-28 05:33:00,31.6,29.0,29.83,NW,323,0.0,0.0,90,0.00,,---,0.00,VWS V14.00,2013-01-28 13:33:00,
2013-01-28 05:38:00,31.6,29.0,29.83,NW,323,0.0,0.0,90,0.00,,---,0.00,VWS V14.00,2013-01-28 13:38:00,
2013-01-28 05:43:00,31.8,29.2,29.83,NW,323,0.0,0.0,90,0.00,,---,0.00,VWS V14.00,2013-01-28 13:43:00,
2013-01-28 05:48:00,31.6,29.0,29.83,NW,323,0.0,0.0,90,0.00,,---,0.00,VWS V14.00,2013-01-28 13:48:00,
2013-01-28 05:53:00,31.5,28.9,29.83,NW,323,0.0,0.0,90,0.00,,---,0.00,VWS V14.00,2013-01-28 13:53:00,
2013-01-28 05:58:00,31.3,28.7,29.83,NW,323,0.0,0.0,90,0.00,,---,0.00,VWS V14.00,2013-01-28 13:58:00,
2013-01-28 06:03:00,31.5,28.9,29.84,NW,323,0.0,0.0,90,0.00,,---,0.00,VWS V14.00,2013-01-28 14:03:00,
2013-01-28 06:08:00,31.5,28.9,29.84,NW,323,0.0,0.0,90,0.00,,---,0.00,VWS V14.00,2013-01-28 14:08:00,
2013-01-28 06:13:00,31.5,28.9,29.84,NW,323,0.0,0.0,90,0.00,,---,0.00,VWS V14.00,2013-01-28 14:13:00,
2013-01-28 06:18:00,31.5,28.9,29.84,NW,323,0.0,0.0,90,0.00,,---,0.00,VWS V14.00,2013-01-28 14:18:00,
2013-01-28 06:23:00,31.5,28.9,29.84,NW,323,0.0,0.0,90,0.00,,---,0.00,VWS V14.00,2013-01-28 14:23:00,
2013-01-28 06:28:00,31.5,29.2,29.84,NW,323,0.0,0.0,91,0.00,,---,0.00,VWS V14.00,2013-01-28 14:28:00,
2013-01-28 06:33:00,31.5,29.2,29.85,NW,323,0.0,0.0,91,0.00,,---,0.00,VWS V14.00,2013-01-28 14:33:00,
2013-01-28 06:38:00,31.6,29.3,29.85,NW,323,0.0,0.0,91,0.00,,---,0.00,VWS V14.00,2013-01-28 14:38:00,
2013-01-28 06:42:00,31.5,28.9,29.85,NW,323,0.0,0.0,90,0.00,,---,0.00,VWS V14.00,2013-01-28 14:42:00,
2013-01-28 06:47:00,31.3,28.7,29.85,NW,323,0.0,0.0,90,0.00,,---,0.00,VWS V14.00,2013-01-28 14:47:00,
2013-01-28 06:52:00,31.3,28.7,29.85,NW,323,0.0,0.0,90,0.00,,---,0.00,VWS V14.00,2013-01-28 14:52:00,
2013-01-28 06:57:00,31.3,28.7,29.85,NW,323,0.0,0.0,90,0.00,,---,0.00,VWS V14.00,2013-01-28 14:57:00,
2013-01-28 07:02:00,31.2,28.6,29.87,NW,323,0.0,0.0,90,0.00,,---,0.00,VWS V14.00,2013-01-28 15:02:00,
2013-01-28 07:07:00,31.0,28.4,29.87,NW,323,0.0,0.0,90,0.00,,---,0.00,VWS V14.00,2013-01-28 15:07:00,
2013-01-28 07:12:00,30.9,28.3,29.87,NW,323,0.0,0.0,90,0.00,,---,0.00,VWS V14.00,2013-01-28 15:12:00,
2013-01-28 07:17:00,31.0,28.7,29.87,NW,323,0.0,0.0,91,0.00,,---,0.00,VWS V14.00,2013-01-28 15:17:00,
2013-01-28 07:22:00,31.2,28.9,29.87,NW,323,0.0,0.0,91,0.00,,---,0.00,VWS V14.00,2013-01-28 15:22:00,
2013-01-28 07:27:00,31.2,28.9,29.87,NW,323,0.0,0.0,91,0.00,,---,0.00,VWS V14.00,2013-01-28 15:27:00,
2013-01-28 07:32:00,31.2,28.9,29.88,NW,323,0.0,0.0,91,0.00,,---,0.00,VWS V14.00,2013-01-28 15:32:00,
2013-01-28 07:37:00,31.2,28.9,29.88,NW,323,0.0,0.0,91,0.00,,---,0.00,VWS V14.00,2013-01-28 15:37:00,
2013-01-28 07:42:00,31.3,29.0,29.88,NW,323,0.0,0.0,91,0.00,,---,0.00,VWS V14.00,2013-01-28 15:42:00,
2013-01-28 07:47:00,31.3,29.0,29.89,NW,323,0.0,0.0,91,0.00,,---,0.00,VWS V14.00,2013-01-28 15:47:00,
2013-01-28 07:52:00,31.3,29.0,29.89,NW,323,0.0,0.0,91,0.00,,---,0.00,VWS V14.00,2013-01-28 15:52:00,
2013-01-28 07:57:00,31.3,29.0,29.89,NW,323,0.0,0.0,91,0.00,,---,0.00,VWS V14.00,2013-01-28 15:57:00,
2013-01-28 08:02:00,31.3,29.0,29.89,NW,323,0.0,0.0,91,0.00,,---,0.00,VWS V14.00,2013-01-28 16:02:00,
2013-01-28 08:07:00,31.6,29.5,29.89,NW,323,0.0,0.0,92,0.00,,---,0.00,VWS V14.00,2013-01-28 16:07:00,
2013-01-28 08:12:00,31.9,29.8,29.89,NW,323,0.0,0.0,92,0.00,,---,0.00,VWS V14.00,2013-01-28 16:12:00,
2013-01-28 08:17:00,32.5,30.4,29.89,NW,323,0.0,0.0,92,0.00,,---,0.00,VWS V14.00,2013-01-28 16:17:00,
2013-01-28 08:22:00,32.9,30.8,29.89,NW,323,0.0,0.0,92,0.00,,---,0.00,VWS V14.00,2013-01-28 16:22:00,
2013-01-28 08:27:00,33.4,31.3,29.89,NW,323,0.0,0.0,92,0.00,,---,0.00,VWS V14.00,2013-01-28 16:27:00,
2013-01-28 08:32:00,33.7,31.6,29.89,NW,323,0.0,0.0,92,0.00,,---,0.00,VWS V14.00,2013-01-28 16:32:00,
2013-01-28 08:37:00,33.8,31.7,29.89,NW,323,0.0,0.0,92,0.00,,---,0.00,VWS V14.00,2013-01-28 16:37:00,
2013-01-28 08:42:00,34.1,32.0,29.89,NW,323,0.0,0.0,92,0.00,,---,0.00,VWS V14.00,2013-01-28 16:42:00,
2013-01-28 08:47:00,34.6,32.5,29.89,NW,323,0.0,0.0,92,0.00,,---,0.00,VWS V14.00,2013-01-28 16:47:00,
2013-01-28 08:52:00,34.9,32.8,29.89,NW,323,0.0,0.0,92,0.00,,---,0.00,VWS V14.00,2013-01-28 16:52:00,
2013-01-28 08:57:00,35.6,33.5,29.89,NW,323,0.0,0.0,92,0.00,,---,0.00,VWS V14.00,2013-01-28 16:57:00,
2013-01-28 09:02:00,36.8,34.7,29.89,NW,323,0.0,0.0,92,0.00,,---,0.00,VWS V14.00,2013-01-28 17:02:00,
2013-01-28 09:07:00,38.2,35.5,29.89,NW,323,0.0,1.0,90,0.00,,---,0.00,VWS V14.00,2013-01-28 17:07:00,
2013-01-28 09:12:00,39.5,36.0,29.89,NW,323,0.0,0.0,87,0.00,,---,0.00,VWS V14.00,2013-01-28 17:12:00,
2013-01-28 09:17:00,40.1,35.4,29.89,NW,323,0.0,0.0,83,0.00,,---,0.00,VWS V14.00,2013-01-28 17:17:00,
2013-01-28 09:22:00,41.1,34.8,29.90,NW,323,0.0,0.0,78,0.00,,---,0.00,VWS V14.00,2013-01-28 17:22:00,
2013-01-28 09:27:00,41.8,34.1,29.90,NW,323,0.0,0.0,74,0.00,,---,0.00,VWS V14.00,2013-01-28 17:27:00,
2013-01-28 09:32:00,42.5,34.8,29.90,NW,323,0.0,0.0,74,0.00,,---,0.00,VWS V14.00,2013-01-28 17:32:00,
2013-01-28 09:37:00,43.5,34.4,29.89,NW,323,0.0,0.0,70,0.00,,---,0.00,VWS V14.00,2013-01-28 17:37:00,
2013-01-28 09:42:00,44.3,33.3,29.89,NW,323,0.0,0.0,65,0.00,,---,0.00,VWS V14.00,2013-01-28 17:42:00,
2013-01-28 09:47:00,44.3,32.9,29.89,NW,323,0.0,1.0,64,0.00,,---,0.00,VWS V14.00,2013-01-28 17:47:00,
2013-01-28 09:52:00,44.6,32.0,29.90,NW,323,0.0,4.0,61,0.00,,---,0.00,VWS V14.00,2013-01-28 17:52:00,
2013-01-28 09:57:00,44.8,32.6,29.90,NW,323,0.0,0.0,62,0.00,,---,0.00,VWS V14.00,2013-01-28 17:57:00,
2013-01-28 10:02:00,44.9,31.9,29.90,NW,322,1.0,4.0,60,0.00,,---,0.00,VWS V14.00,2013-01-28 18:02:00,
2013-01-28 10:07:00,45.4,33.2,29.91,NW,322,0.0,2.0,62,0.00,,---,0.00,VWS V14.00,2013-01-28 18:07:00,
2013-01-28 10:12:00,45.8,32.3,29.91,NW,322,1.0,1.0,59,0.00,,---,0.00,VWS V14.00,2013-01-28 18:12:00,
2013-01-28 10:17:00,46.7,31.9,29.91,NW,322,1.0,4.0,56,0.00,,---,0.00,VWS V14.00,2013-01-28 18:17:00,
2013-01-28 10:22:00,47.1,32.2,29.91,NW,319,0.0,5.0,56,0.00,,---,0.00,VWS V14.00,2013-01-28 18:22:00,
2013-01-28 10:27:00,47.6,31.8,29.91,NW,305,4.0,4.0,54,0.00,,---,0.00,VWS V14.00,2013-01-28 18:27:00,
2013-01-28 10:32:00,47.7,31.4,29.91,WNW,295,1.0,7.0,53,0.00,,---,0.00,VWS V14.00,2013-01-28 18:32:00,
2013-01-28 10:37:00,48.0,30.8,29.91,NW,322,0.0,6.0,51,0.00,,---,0.00,VWS V14.00,2013-01-28 18:37:00,
2013-01-28 10:42:00,48.6,30.8,29.91,NNW,334,0.0,5.0,50,0.00,,---,0.00,VWS V14.00,2013-01-28 18:42:00,
2013-01-28 10:47:00,48.9,30.6,29.91,NW,305,0.0,8.0,49,0.00,,---,0.00,VWS V14.00,2013-01-28 18:47:00,
2013-01-28 10:52:00,49.4,31.6,29.91,NW,311,2.0,3.0,50,0.00,,---,0.00,VWS V14.00,2013-01-28 18:52:00,
2013-01-28 10:57:00,49.6,31.7,29.91,WNW,286,0.0,7.0,50,0.00,,---,0.00,VWS V14.00,2013-01-28 18:57:00,
2013-01-28 11:02:00,49.9,31.5,29.91,West,281,1.0,6.0,49,0.00,,---,0.00,VWS V14.00,2013-01-28 19:02:00,
2013-01-28 11:07:00,50.4,31.0,29.92,WNW,301,2.0,6.0,47,0.00,,---,0.00,VWS V14.00,2013-01-28 19:07:00,
2013-01-28 11:12:00,50.7,31.2,29.92,NW,323,0.0,7.0,47,0.00,,---,0.00,VWS V14.00,2013-01-28 19:12:00,
2013-01-28 11:17:00,51.1,30.0,29.92,NW,321,2.0,10.0,44,0.00,,---,0.00,VWS V14.00,2013-01-28 19:17:00,
2013-01-28 11:22:00,51.4,30.8,29.91,NW,304,0.0,5.0,45,0.00,,---,0.00,VWS V14.00,2013-01-28 19:22:00,
2013-01-28 11:27:00,51.6,29.3,29.91,North,350,5.0,8.0,42,0.00,,---,0.00,VWS V14.00,2013-01-28 19:27:00,
2013-01-28 11:32:00,51.6,29.3,29.91,NW,322,5.0,5.0,42,0.00,,---,0.00,VWS V14.00,2013-01-28 19:32:00,
2013-01-28 11:37:00,51.7,29.9,29.92,WNW,297,3.0,7.0,43,0.00,,---,0.00,VWS V14.00,2013-01-28 19:37:00,
2013-01-28 11:42:00,51.9,29.5,29.92,West,264,5.0,7.0,42,0.00,,---,0.00,VWS V14.00,2013-01-28 19:42:00,
2013-01-28 11:47:00,51.9,30.7,29.92,NNW,329,1.0,8.0,44,0.00,,---,0.00,VWS V14.00,2013-01-28 19:47:00,
2013-01-28 11:52:00,52.3,30.5,29.91,NNW,333,0.0,8.0,43,0.00,,---,0.00,VWS V14.00,2013-01-28 19:52:00,
2013-01-28 11:57:00,52.6,30.2,29.91,NW,306,2.0,5.0,42,0.00,,---,0.00,VWS V14.00,2013-01-28 19:57:00,
2013-01-28 12:02:00,52.6,31.3,29.91,WSW,250,0.0,7.0,44,0.00,,---,0.00,VWS V14.00,2013-01-28 20:02:00,
2013-01-28 12:07:00,52.6,31.3,29.91,NNW,327,0.0,6.0,44,0.00,,---,0.00,VWS V14.00,2013-01-28 20:07:00,
2013-01-28 12:12:00,52.9,30.5,29.91,WNW,284,0.0,7.0,42,0.00,,---,0.00,VWS V14.00,2013-01-28 20:12:00,
2013-01-28 12:17:00,52.9,31.6,29.91,West,259,5.0,8.0,44,0.00,,---,0.00,VWS V14.00,2013-01-28 20:17:00,
2013-01-28 12:22:00,53.1,31.2,29.91,WNW,292,7.0,10.0,43,0.00,,---,0.00,VWS V14.00,2013-01-28 20:22:00,
2013-01-28 12:27:00,52.5,31.2,29.91,WNW,285,2.0,8.0,44,0.00,,---,0.00,VWS V14.00,2013-01-28 20:27:00,
2013-01-28 12:32:00,52.9,31.6,29.91,WSW,243,5.0,11.0,44,0.00,,---,0.00,VWS V14.00,2013-01-28 20:32:00,
2013-01-28 12:37:00,52.8,31.5,29.91,WSW,251,6.0,8.0,44,0.00,,---,0.00,VWS V14.00,2013-01-28 20:37:00,
2013-01-28 12:42:00,52.9,31.6,29.91,West,267,5.0,8.0,44,0.00,,---,0.00,VWS V14.00,2013-01-28 20:42:00,
2013-01-28 12:47:00,53.2,30.7,29.91,WNW,302,4.0,9.0,42,0.00,,---,0.00,VWS V14.00,2013-01-28 20:47:00,
2013-01-28 12:52:00,53.6,31.7,29.90,WNW,290,2.0,6.0,43,0.00,,---,0.00,VWS V14.00,2013-01-28 20:52:00,
2013-01-28 12:57:00,54.2,32.2,29.90,NNW,330,5.0,11.0,43,0.00,,---,0.00,VWS V14.00,2013-01-28 20:57:00,
2013-01-28 13:02:00,53.9,32.5,29.90,West,264,5.0,10.0,44,0.01,,---,0.01,VWS V14.00,2013-01-28 21:02:00,
2013-01-28 13:07:00,53.8,31.9,29.90,WNW,300,5.0,9.0,43,0.01,,---,0.01,VWS V14.00,2013-01-28 21:07:00,
2013-01-28 13:12:00,53.9,31.4,29.90,NW,307,1.0,10.0,42,0.01,,---,0.01,VWS V14.00,2013-01-28 21:12:00,
2013-01-28 13:17:00,54.1,32.1,29.90,NNW,330,0.0,8.0,43,0.01,,---,0.01,VWS V14.00,2013-01-28 21:17:00,
2013-01-28 13:22:00,54.5,31.9,29.90,NW,320,5.0,10.0,42,0.01,,---,0.01,VWS V14.00,2013-01-28 21:22:00,
2013-01-28 13:27:00,54.7,32.7,29.90,NW,304,2.0,7.0,43,0.01,,---,0.01,VWS V14.00,2013-01-28 21:27:00,
2013-01-28 13:32:00,55.0,32.3,29.90,NNW,330,3.0,9.0,42,0.01,,---,0.01,VWS V14.00,2013-01-28 21:32:00,
2013-01-28 13:36:00,55.3,33.2,29.89,NNW,333,3.0,7.0,43,0.01,,---,0.01,VWS V14.00,2013-01-28 21:36:00,
2013-01-28 13:41:00,55.3,33.2,29.89,NW,309,1.0,6.0,43,0.01,,---,0.01,VWS V14.00,2013-01-28 21:41:00,
2013-01-28 13:46:00,55.1,33.0,29.89,WNW,287,8.0,11.0,43,0.01,,---,0.01,VWS V14.00,2013-01-28 21:46:00,
2013-01-28 13:51:00,55.0,33.5,29.89,WNW,295,4.0,8.0,44,0.01,,---,0.01,VWS V14.00,2013-01-28 21:51:00,
2013-01-28 13:56:00,55.0,33.5,29.89,WNW,301,2.0,9.0,44,0.01,,---,0.01,VWS V14.00,2013-01-28 21:56:00,
2013-01-28 14:01:00,55.3,33.8,29.89,NW,305,1.0,9.0,44,0.01,,---,0.01,VWS V14.00,2013-01-28 22:01:00,
2013-01-28 14:06:00,55.9,33.8,29.89,WNW,289,4.0,12.0,43,0.00,,---,0.01,VWS V14.00,2013-01-28 22:06:00,
2013-01-28 14:11:00,56.0,33.8,29.89,NW,311,4.0,9.0,43,0.00,,---,0.01,VWS V14.00,2013-01-28 22:11:00,
2013-01-28 14:16:00,56.0,33.2,29.89,WNW,285,5.0,9.0,42,0.00,,---,0.01,VWS V14.00,2013-01-28 22:16:00,
2013-01-28 14:21:00,55.9,33.8,29.88,NNW,339,6.0,10.0,43,0.00,,---,0.01,VWS V14.00,2013-01-28 22:21:00,
2013-01-28 14:26:00,56.2,34.0,29.88,NNW,328,3.0,6.0,43,0.00,,---,0.01,VWS V14.00,2013-01-28 22:26:00,
2013-01-28 14:31:00,56.6,34.4,29.88,WNW,295,0.0,9.0,43,0.00,,---,0.01,VWS V14.00,2013-01-28 22:31:00,
2013-01-28 14:36:00,57.0,34.2,29.88,NNW,327,2.0,9.0,42,0.00,,---,0.01,VWS V14.00,2013-01-28 22:36:00,
2013-01-28 14:41:00,57.2,33.7,29.88,North,0,4.0,9.0,41,0.00,,---,0.01,VWS V14.00,2013-01-28 22:41:00,
2013-01-28 14:46:00,57.2,34.3,29.88,WNW,294,0.0,5.0,42,0.00,,---,0.01,VWS V14.00,2013-01-28 22:46:00,
2013-01-28 14:51:00,57.5,33.4,29.88,WNW,300,5.0,6.0,40,0.00,,---,0.01,VWS V14.00,2013-01-28 22:51:00,
2013-01-28 14:56:00,57.6,33.5,29.88,North,1,2.0,10.0,40,0.00,,---,0.01,VWS V14.00,2013-01-28 22:56:00,
2013-01-28 15:01:00,57.5,34.0,29.88,NNW,342,5.0,9.0,41,0.00,,---,0.01,VWS V14.00,2013-01-28 23:01:00,
2013-01-28 15:06:00,57.5,33.4,29.88,NW,314,7.0,8.0,40,0.00,,---,0.01,VWS V14.00,2013-01-28 23:06:00,
2013-01-28 15:11:00,57.5,32.8,29.88,WNW,286,1.0,9.0,39,0.00,,---,0.01,VWS V14.00,2013-01-28 23:11:00,
2013-01-28 15:16:00,57.6,32.2,29.88,North,357,5.0,7.0,38,0.00,,---,0.01,VWS V14.00,2013-01-28 23:16:00,
2013-01-28 15:21:00,57.6,33.5,29.88,West,266,5.0,6.0,40,0.00,,---,0.01,VWS V14.00,2013-01-28 23:21:00,
2013-01-28 15:26:00,57.5,32.1,29.88,NW,307,5.0,9.0,38,0.00,,---,0.01,VWS V14.00,2013-01-28 23:26:00,
2013-01-28 15:31:00,57.2,32.5,29.88,WNW,301,4.0,7.0,39,0.00,,---,0.01,VWS V14.00,2013-01-28 23:31:00,
2013-01-28 15:36:00,56.9,32.8,29.88,NNW,338,1.0,7.0,40,0.00,,---,0.01,VWS V14.00,2013-01-28 23:36:00,
2013-01-28 15:41:00,56.7,32.7,29.88,WNW,294,4.0,7.0,40,0.00,,---,0.01,VWS V14.00,2013-01-28 23:41:00,
2013-01-28 15:46:00,56.6,33.2,29.88,WNW,302,9.0,10.0,41,0.00,,---,0.01,VWS V14.00,2013-01-28 23:46:00,
2013-01-28 15:51:00,56.5,32.5,29.89,NW,317,0.0,5.0,40,0.00,,---,0.01,VWS V14.00,2013-01-28 23:51:00,
2013-01-28 15:56:00,56.6,32.6,29.89,NW,321,0.0,5.0,40,0.00,,---,0.01,VWS V14.00,2013-01-28 23:56:00,
2013-01-28 16:01:00,56.6,32.0,29.89,NW,318,4.0,10.0,39,0.00,,---,0.01,VWS V14.00,2013-01-29 00:01:00,
2013-01-28 16:06:00,56.6,31.3,29.89,WNW,294,2.0,7.0,38,0.00,,---,0.01,VWS V14.00,2013-01-29 00:06:00,
2013-01-28 16:11:00,56.5,31.2,29.89,West,281,5.0,9.0,38,0.00,,---,0.01,VWS V14.00,2013-01-29 00:11:00,
2013-01-28 16:16:00,56.2,31.0,29.89,NW,326,2.0,11.0,38,0.00,,---,0.01,VWS V14.00,2013-01-29 00:16:00,
2013-01-28 16:21:00,56.2,31.6,29.90,WNW,290,0.0,8.0,39,0.00,,---,0.01,VWS V14.00,2013-01-29 00:21:00,
2013-01-28 16:26:00,56.0,32.0,29.90,NW,320,0.0,4.0,40,0.00,,---,0.01,VWS V14.00,2013-01-29 00:26:00,
2013-01-28 16:31:00,55.7,31.8,29.90,NNW,333,4.0,6.0,40,0.00,,---,0.01,VWS V14.00,2013-01-29 00:31:00,
2013-01-28 16:36:00,55.6,32.3,29.90,North,349,5.0,6.0,41,0.00,,---,0.01,VWS V14.00,2013-01-29 00:36:00,
2013-01-28 16:41:00,55.4,32.7,29.90,WNW,296,2.0,7.0,42,0.00,,---,0.01,VWS V14.00,2013-01-29 00:41:00,
2013-01-28 16:46:00,55.3,32.6,29.90,NW,310,2.0,4.0,42,0.00,,---,0.01,VWS V14.00,2013-01-29 00:46:00,
2013-01-28 16:51:00,55.0,33.5,29.90,NW,315,1.0,2.0,44,0.00,,---,0.01,VWS V14.00,2013-01-29 00:51:00,
2013-01-28 16:56:00,54.7,33.2,29.90,NW,315,0.0,2.0,44,0.00,,---,0.01,VWS V14.00,2013-01-29 00:56:00,
2013-01-28 17:01:00,54.4,33.5,29.90,NW,315,0.0,1.0,45,0.00,,---,0.01,VWS V14.00,2013-01-29 01:01:00,
2013-01-28 17:06:00,54.1,33.8,29.90,NW,315,0.0,1.0,46,0.00,,---,0.01,VWS V14.00,2013-01-29 01:06:00,
2013-01-28 17:11:00,53.6,33.9,29.90,NW,315,0.0,0.0,47,0.00,,---,0.01,VWS V14.00,2013-01-29 01:11:00,
2013-01-28 17:16:00,53.3,34.1,29.90,NW,315,0.0,0.0,48,0.00,,---,0.01,VWS V14.00,2013-01-29 01:16:00,
2013-01-28 17:21:00,53.1,34.5,29.91,NW,315,0.0,0.0,49,0.00,,---,0.01,VWS V14.00,2013-01-29 01:21:00,
2013-01-28 17:26:00,52.8,34.7,29.91,NW,315,0.0,3.0,50,0.00,,---,0.01,VWS V14.00,2013-01-29 01:26:00,
2013-01-28 17:31:00,52.3,34.7,29.91,NW,315,0.0,0.0,51,0.00,,---,0.01,VWS V14.00,2013-01-29 01:31:00,
2013-01-28 17:36:00,51.6,34.6,29.91,NW,315,0.0,0.0,52,0.00,,---,0.01,VWS V14.00,2013-01-29 01:36:00,
2013-01-28 17:41:00,51.0,34.5,29.91,NW,315,0.0,0.0,53,0.00,,---,0.01,VWS V14.00,2013-01-29 01:41:00,
2013-01-28 17:46:00,50.7,34.2,29.91,NW,315,0.0,0.0,53,0.00,,---,0.01,VWS V14.00,2013-01-29 01:46:00,
2013-01-28 17:51:00,50.4,33.9,29.92,NW,315,0.0,0.0,53,0.00,,---,0.01,VWS V14.00,2013-01-29 01:51:00,
2013-01-28 17:56:00,50.1,33.7,29.92,NW,315,0.0,0.0,53,0.00,,---,0.01,VWS V14.00,2013-01-29 01:56:00,
2013-01-28 18:01:00,49.9,33.5,29.92,NW,315,0.0,0.0,53,0.00,,---,0.01,VWS V14.00,2013-01-29 02:01:00,
2013-01-28 18:06:00,49.8,34.3,29.91,NW,315,0.0,0.0,55,0.00,,---,0.01,VWS V14.00,2013-01-29 02:06:00,
2013-01-28 18:11:00,49.4,33.9,29.91,NW,315,0.0,0.0,55,0.00,,---,0.01,VWS V14.00,2013-01-29 02:11:00,
2013-01-28 18:16:00,48.9,33.9,29.91,NW,315,0.0,0.0,56,0.00,,---,0.01,VWS V14.00,2013-01-29 02:16:00,
2013-01-28 18:21:00,48.6,34.1,29.92,NW,315,0.0,0.0,57,0.00,,---,0.01,VWS V14.00,2013-01-29 02:21:00,
2013-01-28 18:26:00,48.3,34.2,29.92,NW,315,0.0,0.0,58,0.00,,---,0.01,VWS V14.00,2013-01-29 02:26:00,
2013-01-28 18:31:00,48.0,34.4,29.92,NW,315,0.0,0.0,59,0.00,,---,0.01,VWS V14.00,2013-01-29 02:31:00,
2013-01-28 18:36:00,47.7,34.1,29.93,NW,315,0.0,0.0,59,0.00,,---,0.01,VWS V14.00,2013-01-29 02:36:00,
2013-01-28 18:41:00,47.4,34.6,29.93,NW,315,0.0,0.0,61,0.00,,---,0.01,VWS V14.00,2013-01-29 02:41:00,
2013-01-28 18:46:00,47.1,34.8,29.93,NW,315,0.0,0.0,62,0.00,,---,0.01,VWS V14.00,2013-01-29 02:46:00,
2013-01-28 18:51:00,46.8,34.5,29.93,NW,315,0.0,0.0,62,0.00,,---,0.01,VWS V14.00,2013-01-29 02:51:00,
2013-01-28 18:56:00,46.5,34.6,29.93,NW,315,0.0,0.0,63,0.00,,---,0.01,VWS V14.00,2013-01-29 02:56:00,
2013-01-28 19:01:00,46.4,34.9,29.93,NW,315,0.0,0.0,64,0.00,,---,0.01,VWS V14.00,2013-01-29 03:01:00,
2013-01-28 19:06:00,46.1,34.6,29.93,NW,315,0.0,0.0,64,0.00,,---,0.01,VWS V14.00,2013-01-29 03:06:00,
2013-01-28 19:11:00,45.8,34.3,29.93,NW,315,0.0,0.0,64,0.00,,---,0.01,VWS V14.00,2013-01-29 03:11:00,
2013-01-28 19:16:00,45.7,34.6,29.93,NW,315,0.0,0.0,65,0.00,,---,0.01,VWS V14.00,2013-01-29 03:16:00,
2013-01-28 19:21:00,45.4,34.7,29.93,NW,315,0.0,0.0,66,0.00,,---,0.01,VWS V14.00,2013-01-29 03:21:00,
2013-01-28 19:26:00,45.4,35.1,29.93,NW,315,0.0,0.0,67,0.00,,---,0.01,VWS V14.00,2013-01-29 03:26:00,
2013-01-28 19:30:00,45.2,34.9,29.93,NW,315,0.0,0.0,67,0.00,,---,0.01,VWS V14.00,2013-01-29 03:30:00,
2013-01-28 19:36:00,44.9,35.0,29.93,NW,315,0.0,0.0,68,0.00,,---,0.01,VWS V14.00,2013-01-29 03:36:00,
2013-01-28 19:40:00,44.5,34.6,29.93,NW,315,0.0,0.0,68,0.00,,---,0.01,VWS V14.00,2013-01-29 03:40:00,
2013-01-28 19:45:00,44.3,34.8,29.93,NW,315,0.0,0.0,69,0.00,,---,0.01,VWS V14.00,2013-01-29 03:45:00,
2013-01-28 19:50:00,44.2,34.7,29.94,NW,315,0.0,0.0,69,0.00,,---,0.01,VWS V14.00,2013-01-29 03:50:00,
2013-01-28 19:55:00,44.1,35.0,29.94,NW,315,0.0,0.0,70,0.00,,---,0.01,VWS V14.00,2013-01-29 03:55:00,
2013-01-28 20:00:00,43.9,35.1,29.94,NW,315,0.0,0.0,71,0.00,,---,0.01,VWS V14.00,2013-01-29 04:00:00,
2013-01-28 20:05:00,43.6,34.8,29.95,NW,315,0.0,0.0,71,0.00,,---,0.01,VWS V14.00,2013-01-29 04:05:00,
2013-01-28 20:10:00,43.5,35.1,29.95,NW,315,0.0,0.0,72,0.00,,---,0.01,VWS V14.00,2013-01-29 04:10:00,
2013-01-28 20:15:00,43.2,35.1,29.95,NW,315,0.0,0.0,73,0.00,,---,0.01,VWS V14.00,2013-01-29 04:15:00,
2013-01-28 20:20:00,43.1,35.0,29.94,NW,315,0.0,0.0,73,0.00,,---,0.01,VWS V14.00,2013-01-29 04:20:00,
2013-01-28 20:25:00,42.8,35.1,29.94,NW,315,0.0,0.0,74,0.00,,---,0.01,VWS V14.00,2013-01-29 04:25:00,
2013-01-28 20:30:00,42.8,35.1,29.94,NW,315,0.0,0.0,74,0.00,,---,0.01,VWS V14.00,2013-01-29 04:30:00,
2013-01-28 20:35:00,42.6,34.9,29.95,NW,315,0.0,0.0,74,0.00,,---,0.01,VWS V14.00,2013-01-29 04:35:00,
2013-01-28 20:40:00,42.5,35.2,29.95,NW,315,0.0,0.0,75,0.00,,---,0.01,VWS V14.00,2013-01-29 04:40:00,
2013-01-28 20:45:00,42.3,35.0,29.95,NW,315,0.0,0.0,75,0.00,,---,0.01,VWS V14.00,2013-01-29 04:45:00,
2013-01-28 20:50:00,42.1,35.1,29.95,NW,315,0.0,0.0,76,0.00,,---,0.01,VWS V14.00,2013-01-29 04:50:00,
2013-01-28 20:55:00,41.9,34.9,29.95,NW,315,0.0,0.0,76,0.00,,---,0.01,VWS V14.00,2013-01-29 04:55:00,
2013-01-28 21:00:00,41.9,35.2,29.95,NW,315,0.0,0.0,77,0.00,,---,0.01,VWS V14.00,2013-01-29 05:00:00,
2013-01-28 21:01:00,41.8,35.1,29.95,NW,315,0.0,0.0,77,0.00,,---,0.01,VWS V14.00,2013-01-29 05:01:00,
2013-01-28 21:06:00,41.6,34.9,29.95,NW,315,0.0,0.0,77,0.00,,---,0.01,VWS V14.00,2013-01-29 05:06:00,
2013-01-28 21:11:00,41.6,35.3,29.95,NW,315,0.0,0.0,78,0.00,,---,0.01,VWS V14.00,2013-01-29 05:11:00,
2013-01-28 21:16:00,41.5,35.2,29.95,NW,315,0.0,0.0,78,0.00,,---,0.01,VWS V14.00,2013-01-29 05:16:00,
2013-01-28 21:21:00,41.3,35.0,29.94,NW,315,0.0,0.0,78,0.00,,---,0.01,VWS V14.00,2013-01-29 05:21:00,
2013-01-28 21:26:00,41.2,34.9,29.94,NW,315,0.0,0.0,78,0.00,,---,0.01,VWS V14.00,2013-01-29 05:26:00,
2013-01-28 21:31:00,41.1,35.1,29.94,NW,315,0.0,0.0,79,0.00,,---,0.01,VWS V14.00,2013-01-29 05:31:00,
2013-01-28 21:36:00,41.1,35.1,29.94,NW,315,0.0,0.0,79,0.00,,---,0.01,VWS V14.00,2013-01-29 05:36:00,
2013-01-28 21:41:00,40.9,35.2,29.94,NW,315,0.0,0.0,80,0.00,,---,0.01,VWS V14.00,2013-01-29 05:41:00,
2013-01-28 21:46:00,40.9,35.2,29.94,NW,315,0.0,0.0,80,0.00,,---,0.01,VWS V14.00,2013-01-29 05:46:00,
2013-01-28 21:51:00,40.9,35.2,29.94,NW,315,0.0,0.0,80,0.00,,---,0.01,VWS V14.00,2013-01-29 05:51:00,
2013-01-28 21:56:00,40.9,35.2,29.94,NW,315,0.0,0.0,80,0.00,,---,0.01,VWS V14.00,2013-01-29 05:56:00,
2013-01-28 22:01:00,40.9,34.9,29.94,NW,315,0.0,0.0,79,0.00,,---,0.01,VWS V14.00,2013-01-29 06:01:00,
2013-01-28 22:06:00,40.9,34.6,29.95,NW,315,0.0,0.0,78,0.00,,---,0.01,VWS V14.00,2013-01-29 06:06:00,
2013-01-28 22:11:00,40.9,34.6,29.95,NW,315,0.0,0.0,78,0.00,,---,0.01,VWS V14.00,2013-01-29 06:11:00,
2013-01-28 22:16:00,40.8,34.5,29.95,NW,315,0.0,0.0,78,0.00,,---,0.01,VWS V14.00,2013-01-29 06:16:00,
2013-01-28 22:21:00,40.6,34.3,29.95,NW,315,0.0,0.0,78,0.00,,---,0.01,VWS V14.00,2013-01-29 06:21:00,
2013-01-28 22:26:00,40.6,34.6,29.95,NW,315,0.0,0.0,79,0.00,,---,0.01,VWS V14.00,2013-01-29 06:26:00,
2013-01-28 22:31:00,40.5,34.5,29.95,NW,315,0.0,0.0,79,0.00,,---,0.01,VWS V14.00,2013-01-29 06:31:00,
2013-01-28 22:36:00,40.3,34.3,29.94,NW,315,0.0,0.0,79,0.00,,---,0.01,VWS V14.00,2013-01-29 06:36:00,
2013-01-28 22:41:00,40.2,34.5,29.94,NW,315,0.0,0.0,80,0.00,,---,0.01,VWS V14.00,2013-01-29 06:41:00,
2013-01-28 22:46:00,40.1,34.4,29.94,NW,315,0.0,0.0,80,0.00,,---,0.01,VWS V14.00,2013-01-29 06:46:00,
2013-01-28 22:51:00,40.1,34.4,29.96,NW,315,0.0,0.0,80,0.00,,---,0.01,VWS V14.00,2013-01-29 06:51:00,
2013-01-28 22:56:00,39.9,34.2,29.96,NW,315,0.0,0.0,80,0.00,,---,0.01,VWS V14.00,2013-01-29 06:56:00,
2013-01-28 23:01:00,39.9,34.2,29.96,NW,315,0.0,0.0,80,0.00,,---,0.01,VWS V14.00,2013-01-29 07:01:00,
2013-01-28 23:06:00,39.9,34.5,29.96,NW,315,0.0,0.0,81,0.00,,---,0.01,VWS V14.00,2013-01-29 07:06:00,
2013-01-28 23:11:00,39.9,34.2,29.96,NW,315,0.0,0.0,80,0.00,,---,0.01,VWS V14.00,2013-01-29 07:11:00,
2013-01-28 23:16:00,39.9,34.2,29.96,NW,315,0.0,0.0,80,0.00,,---,0.01,VWS V14.00,2013-01-29 07:16:00,
2013-01-28 23:21:00,39.8,34.1,29.96,NW,315,0.0,0.0,80,0.00,,---,0.01,VWS V14.00,2013-01-29 07:21:00,
2013-01-28 23:26:00,39.6,34.3,29.96,NW,315,0.0,0.0,81,0.00,,---,0.01,VWS V14.00,2013-01-29 07:26:00,
2013-01-28 23:31:00,39.6,34.3,29.96,NW,315,0.0,0.0,81,0.00,,---,0.01,VWS V14.00,2013-01-29 07:31:00,
2013-01-28 23:36:00,39.5,34.2,29.96,NW,315,0.0,0.0,81,0.00,,---,0.01,VWS V14.00,2013-01-29 07:36:00,
2013-01-28 23:41:00,39.3,34.0,29.96,NW,315,0.0,0.0,81,0.00,,---,0.01,VWS V14.00,2013-01-29 07:41:00,
2013-01-28 23:46:00,39.3,34.0,29.96,NW,315,0.0,0.0,81,0.00,,---,0.01,VWS V14.00,2013-01-29 07:46:00,
2013-01-28 23:51:00,39.2,33.6,29.96,NW,315,0.0,0.0,80,0.00,,---,0.01,VWS V14.00,2013-01-29 07:51:00,
2013-01-28 23:56:00,39.1,33.8,29.96,NW,315,0.0,0.0,81,0.00,,---,0.01,VWS V14.00,2013-01-29 07:56:00,